TimeCDT,TemperatureF,Dew PointF,Humidity,Sea Level PressureIn,VisibilityMPH,Wind Direction,Wind SpeedMPH,Gust SpeedMPH,PrecipitationIn,Events,Conditions,WindDirDegrees,DateUTC
12:53 AM,52.0,50.0,93,30.11,10.0,Calm,Calm,-,N/A,,Clear,0,2012-10-22 05:53:00
1:53 AM,51.1,48.9,92,30.11,10.0,Calm,Calm,-,N/A,,Clear,0,2012-10-22 06:53:00
2:53 AM,50.0,48.0,93,30.10,10.0,Calm,Calm,-,N/A,,Clear,0,2012-10-22 07:53:00
3:53 AM,50.0,48.0,93,30.11,10.0,Calm,Calm,-,N/A,,Clear,0,2012-10-22 08:53:00
4:53 AM,48.9,46.9,93,30.12,10.0,Calm,Calm,-,N/A,,Clear,0,2012-10-22 09:53:00
5:53 AM,48.9,46.0,90,30.14,10.0,Calm,Calm,-,N/A,,Clear,0,2012-10-22 10:53:00
6:53 AM,48.0,46.0,93,30.16,10.0,Calm,Calm,-,N/A,,Clear,0,2012-10-22 11:53:00
7:53 AM,54.0,51.1,90,30.17,10.0,Calm,Calm,-,N/A,,Clear,0,2012-10-22 12:53:00
8:53 AM,63.0,55.0,75,30.18,10.0,Variable,3.5,-,N/A,,Clear,0,2012-10-22 13:53:00
9:53 AM,70.0,55.9,61,30.18,10.0,ESE,3.5,-,N/A,,Clear,120,2012-10-22 14:53:00
10:53 AM,73.0,54.0,51,30.18,10.0,Variable,6.9,-,N/A,,Clear,0,2012-10-22 15:53:00
11:53 AM,75.9,55.0,48,30.17,10.0,Variable,4.6,-,N/A,,Clear,0,2012-10-22 16:53:00
12:53 PM,79.0,51.1,38,30.14,10.0,Variable,3.5,-,N/A,,Clear,0,2012-10-22 17:53:00
1:53 PM,80.1,50.0,35,30.10,10.0,ENE,5.8,-,N/A,,Clear,60,2012-10-22 18:53:00
3:53 PM,81.0,48.0,31,30.07,10.0,Calm,Calm,-,N/A,,Clear,0,2012-10-22 20:53:00
4:53 PM,80.1,46.9,31,30.07,10.0,ENE,3.5,-,N/A,,Clear,70,2012-10-22 21:53:00
5:53 PM,71.1,54.0,55,30.08,10.0,Calm,Calm,-,N/A,,Clear,0,2012-10-22 22:53:00
6:53 PM,63.0,55.0,75,30.11,10.0,Calm,Calm,-,N/A,,Clear,0,2012-10-22 23:53:00
7:53 PM,60.1,55.0,83,30.12,10.0,Calm,Calm,-,N/A,,Clear,0,2012-10-23 00:53:00
8:53 PM,57.9,55.0,90,30.13,10.0,Calm,Calm,-,N/A,,Clear,0,2012-10-23 01:53:00
9:53 PM,55.9,53.1,90,30.13,10.0,Calm,Calm,-,N/A,,Clear,0,2012-10-23 02:53:00
10:53 PM,54.0,52.0,93,30.13,8.0,Calm,Calm,-,N/A,,Clear,0,2012-10-23 03:53:00
11:53 PM,53.1,51.1,93,30.12,10.0,Calm,Calm,-,N/A,,Clear,0,2012-10-23 04:53:00